Location: Baturyn
(53.6332°N, 113.5041°W)
Time: 02:46:55
(UTC+00:00)

Envisat - Visible Passes

Search period start: 07 December 2021 00:00
Search period end: 17 December 2021 00:00
Orbit: 764 x 766 km, 98.2° (Epoch: 06 December)

Date Brightness Start Highest point End Pass type
(mag) Time Alt. Az. Time Alt. Az. Time Alt. Az.
07 Dec 4.5 12:01:20 10° NNE 12:06:01 35° E 12:10:39 10° SSE visible
07 Dec 3.3 13:40:20 10° N 13:45:08 43° WNW 13:49:54 10° SW visible
08 Dec 5.9 01:03:29 10° SW 01:06:51 18° W 01:10:14 10° NW visible
08 Dec 5.5 11:25:09 10° NE 11:28:45 19° E 11:32:20 10° SE visible
08 Dec 2.9 13:03:16 10° NNE 13:08:24 79° WNW 13:13:28 10° SSW visible
08 Dec 4.4 14:43:25 10° NNW 14:46:41 17° NW 14:49:56 10° W visible
09 Dec 4.9 00:25:01 10° SSW 00:29:34 33° W 00:34:10 10° NNW visible
09 Dec 3.6 12:26:27 10° NNE 12:31:28 56° E 12:36:27 10° S visible
09 Dec 3.8 14:05:54 10° N 14:10:15 29° WNW 14:14:34 10° WSW visible
10 Dec 6.2 01:31:18 10° W 01:32:34 11° W 01:33:51 10° WNW visible
10 Dec 4.8 11:49:55 10° NNE 11:54:21 29° E 11:58:46 10° SSE visible
10 Dec 3.1 13:28:42 10° N 13:33:38 51° WNW 13:38:32 10° SW visible
11 Dec 5.7 00:51:19 10° SW 00:55:08 21° W 00:59:00 10° NW visible
11 Dec 5.7 11:13:59 10° NE 11:17:02 16° E 11:20:04 10° ESE visible
11 Dec 2.9 12:51:42 10° NNE 12:56:50 86° ESE 13:01:56 10° SSW visible
11 Dec 4.2 14:31:37 10° N 14:35:16 20° NW 14:38:55 10° W visible
12 Dec 4.6 00:13:10 10° SSW 00:17:55 40° W 00:22:43 10° NNW visible
12 Dec 4.0 12:14:57 10° NNE 12:19:51 46° E 12:24:43 10° S visible
12 Dec 3.6 13:54:12 10° N 13:58:46 34° WNW 14:03:19 10° SW visible
13 Dec 6.0 01:18:20 10° WSW 01:20:49 14° W 01:23:19 10° NW visible
13 Dec 5.1 11:38:32 10° NE 11:42:41 24° E 11:46:47 10° SE visible
13 Dec 2.9 13:17:04 10° N 13:22:07 62° WNW 13:27:07 10° SSW visible
13 Dec 4.6 14:57:35 10° NNW 15:00:13 14° NW 15:02:49 10° W visible
14 Dec 5.4 00:39:15 10° SSW 00:43:27 26° W 00:47:41 10° NW visible
14 Dec 5.9 11:03:03 10° ENE 11:05:17 13° E 11:07:32 10° ESE visible
14 Dec 3.2 12:40:09 10° NNE 12:45:16 72° ESE 12:50:20 10° S visible
14 Dec 4.0 14:19:51 10° N 14:23:51 24° WNW 14:27:49 10° WSW visible
15 Dec 4.2 00:01:23 10° S 00:06:17 48° W 00:11:14 10° NNW visible
15 Dec 4.3 12:03:28 10° NNE 12:08:13 38° E 12:12:56 10° SSE visible
15 Dec 3.3 13:42:33 10° N 13:47:18 41° WNW 13:52:01 10° SW visible
16 Dec 5.9 01:05:53 10° SW 01:09:05 17° W 01:12:18 10° NW visible
16 Dec 5.4 11:27:14 10° NE 11:30:59 20° E 11:34:42 10° SE visible
16 Dec 2.8 13:05:28 10° NNE 13:10:34 75° WNW 13:15:39 10° SSW visible
16 Dec 4.4 14:45:42 10° NNW 14:48:49 17° NW 14:51:56 10° W visible
